{"data":{"norad_id":56795,"intl_designator":"2023-078AE","name":"STARLINK-6061","alt_names":[],"object_type":"PAYLOAD","status":"ACTIVE","operator":null,"country":"US","launch_date":"2023-05-31","launch_site_code":"AFWTR","launch_vehicle":null,"mission":null,"orbit_class":"UNKNOWN","rcs_meters":null,"size_class":null,"mass_kg":null,"dimensions":null,"purposes":["comms"],"wikipedia_slug":null,"has_3d_model":false,"image_url":null,"decayed_at":null,"tle_current":{"epoch":"2026-05-25T02:27:33.249024Z","epoch_age_seconds":62721,"freshness":"FRESH","line1":"1 56795U 23078AE  26145.10246816  .00000127  00000+0  18412-4 0  9997","line2":"2 56795  69.9986 131.6221 0003787 265.6913  94.3813 14.98331061164627","mean_motion":14.98331061,"eccentricity":0.0003787,"inclination_deg":69.9986,"raan_deg":131.6221,"arg_perigee_deg":265.6913,"mean_anomaly_deg":94.3813,"bstar":1.8412e-5,"rev_number":16462,"period_min":96.106931070289,"perigee_km":569.42057308611,"apogee_km":574.68464669664,"semimajor_km":6950.1896098914,"source":"CELESTRAK","updated_at":"2026-05-25T13:38:18.157199Z"}}}